Location: Castelbiague
(43.0361°N, 0.9246°E)
Time: 16:47:57
(UTC+00:00)

Cosmos 2228 - Pass Details

Date: 17 June 2021
Orbit: 588 x 618 km, 82.5° (Epoch: 30 July)

Event Time Altitude Azimuth Distance (km) Brightness Sun altitude
Rises 23:06:38 0° 344° (NNW) 2,902 8.0 -22.5°
Reaches altitude 10° 23:08:58 10° 337° (NNW) 1,992 6.7 -22.6°
Maximum altitude 23:13:06 41° 268° (W) 903 3.9 -22.8°
Enters shadow 23:13:43 38° 246° (WSW) 940 3.8 -22.8°
